FW0069 Weather Reports


Display with metric or nautical units.
time (UTC)temp
F
wind
direction
speed
MPH
gust
MPH
rain 1hr
in
rain 24hr
in
rain mn
in
humidity
%
barometer
mb
20260902013055 91 184 7.0 11.0 0.00 0.00 0.00 11 1011.1
20260902012555 91 195 4.0 9.0 0.00 0.00 0.00 11 1011.3
20260902012055 91 196 7.0 9.0 0.00 0.00 0.00 11 1011.2
20260902011055 92 215 3.0 16.0 0.00 0.00 0.00 10 1011.2
20260902010556 92 174 3.0 16.0 0.00 0.00 0.00 10 1011.3
20260902010055 92 198 7.0 16.0 0.00 0.00 0.00 10 1011.3
20260902005055 92 192 4.0 18.0 0.00 0.00 0.00 10 1011.5
20260902004555 93 188 18.0 18.0 0.00 0.00 0.00 9 1011.8
20260902004055 93 199 7.0 14.0 0.00 0.00 0.00 9 1011.8
20260902003556 93 161 13.0 20.0 0.00 0.00 0.00 9 1011.7
20260902002556 94 178 20.0 20.0 0.00 0.00 0.00 9 1011.6
20260902002055 93 128 5.0 11.0 0.00 0.00 0.00 9 1011.6
20260902001555 94 183 3.0 15.0 0.00 0.00 0.00 9 1011.7
20260902001055 93 158 4.0 20.0 0.00 0.00 0.00 9 1011.6
20260902000555 94 174 6.0 20.0 0.00 0.00 0.00 8 1011.6
20260902000055 94 178 6.0 16.0 0.00 0.00 0.00 9 1011.7
20260901235055 94 187 7.0 18.0 0.00 0.00 0.00 8 1011.9
20260901234555 94 179 11.0 18.0 0.00 0.00 0.00 8 1011.9
20260901234055 95 232 7.0 17.0 0.00 0.00 0.00 8 1011.8
20260901233555 95 184 9.0 15.0 0.00 0.00 0.00 8 1011.9
20260901233055 94 215 7.0 20.0 0.00 0.00 0.00 8 1011.8
20260901232555 94 198 8.0 22.0 0.00 0.00 0.00 8 1012.0
20260901232055 94 200 7.0 22.0 0.00 0.00 0.00 8 1012.0
20260901231555 94 173 8.0 20.0 0.00 0.00 0.00 7 1011.9
20260901231055 95 205 13.0 24.0 0.00 0.00 0.00 8 1011.9
20260901230555 95 199 9.0 24.0 0.00 0.00 0.00 7 1011.9
20260901230055 96 178 7.0 15.0 0.00 0.00 0.00 8 1012.1
20260901225555 95 205 5.0 21.0 0.00 0.00 0.00 8 1012.1
20260901225055 95 196 7.0 21.0 0.00 0.00 0.00 8 1012.0
20260901224555 95 183 10.0 17.0 0.00 0.00 0.00 8 1012.1
20260901224055 96 218 14.0 17.0 0.00 0.00 0.00 8 1012.3
20260901223555 96 211 7.0 17.0 0.00 0.00 0.00 8 1012.2
20260901223055 96 196 9.0 20.0 0.00 0.00 0.00 8 1012.3
20260901222055 95 111 12.0 18.0 0.00 0.00 0.00 9 1012.3
20260901220555 96 192 6.0 17.0 0.00 0.00 0.00 9 1012.4
20260901220055 96 203 6.0 16.0 0.00 0.00 0.00 9 1012.6
20260901215555 95 196 7.0 19.0 0.00 0.00 0.00 9 1012.5
20260901214555 95 217 9.0 20.0 0.00 0.00 0.00 9 1012.6
20260901214055 96 196 6.0 15.0 0.00 0.00 0.00 9 1012.7
20260901213555 96 180 9.0 14.0 0.00 0.00 0.00 9 1012.7
20260901212555 96 175 4.0 12.0 0.00 0.00 0.00 9 1012.9
20260901212055 95 160 7.0 19.0 0.00 0.00 0.00 9 1013.0
20260901211555 96 169 5.0 19.0 0.00 0.00 0.00 9 1013.0
20260901211055 95 198 7.0 12.0 0.00 0.00 0.00 9 1013.2
20260901210055 95 200 6.0 17.0 0.00 0.00 0.00 10 1013.4
20260901205555 94 176 5.0 17.0 0.00 0.00 0.00 10 1013.4
20260901205055 94 178 4.0 17.0 0.00 0.00 0.00 11 1013.5
20260901204555 94 171 10.0 14.0 0.00 0.00 0.00 11 1013.6
20260901203055 94 149 4.0 12.0 0.00 0.00 0.00 10 1013.9
20260901202555 94 180 6.0 14.0 0.00 0.00 0.00 10 1013.8
20260901201055 94 199 7.0 11.0 0.00 0.00 0.00 12 1014.0
20260901200555 93 186 4.0 14.0 0.00 0.00 0.00 11 1014.1
20260901200055 93 136 10.0 15.0 0.00 0.00 0.00 11 1014.1
20260901195555 93 360 2.0 15.0 0.00 0.00 0.00 12 1014.3
20260901194555 93 177 4.0 17.0 0.00 0.00 0.00 12 1014.5
20260901194055 93 164 3.0 18.0 0.00 0.00 0.00 12 1014.5
20260901193555 92 196 4.0 18.0 0.00 0.00 0.00 12 1014.5
20260901193055 93 211 8.0 18.0 0.00 0.00 0.00 13 1014.6
20260901192055 92 163 3.0 14.0 0.00 0.00 0.00 14 1014.7
20260901191054 92 75 3.0 12.0 0.00 0.00 0.00 18 1014.9
20260901190554 92 154 2.0 12.0 0.00 0.00 0.00 17 1014.9
20260901190054 91 128 5.0 12.0 0.00 0.00 0.00 18 1014.9
20260901185555 91 184 4.0 15.0 0.00 0.00 0.00 18 1015.0
20260901185055 91 166 3.0 15.0 0.00 0.00 0.00 17 1014.9
20260901184555 91 136 7.0 13.0 0.00 0.00 0.00 16 1015.2
20260901183554 91 113 7.0 10.0 0.00 0.00 0.00 17 1015.1
20260901183055 90 234 2.0 10.0 0.00 0.00 0.00 16 1015.2
20260901182554 90 180 3.0 14.0 0.00 0.00 0.00 16 1015.2
20260901182054 91 153 5.0 14.0 0.00 0.00 0.00 17 1015.2
20260901181554 89 130 7.0 12.0 0.00 0.00 0.00 21 1015.1
20260901180555 90 174 4.0 14.0 0.00 0.00 0.00 21 1015.3
20260901180055 89 143 5.0 14.0 0.00 0.00 0.00 20 1015.3
20260901175555 89 140 3.0 14.0 0.00 0.00 0.00 21 1015.6
20260901175054 89 104 8.0 11.0 0.00 0.00 0.00 21 1015.6
20260901173555 88 134 6.0 15.0 0.00 0.00 0.00 20 1015.4
20260901173054 88 123 3.0 13.0 0.00 0.00 0.00 18 1015.4
20260901172555 88 99 8.0 14.0 0.00 0.00 0.00 17 1015.5
20260901170554 86 67 7.0 12.0 0.00 0.00 0.00 15 1015.3
20260901170055 86 360 2.0 10.0 0.00 0.00 0.00 16 1015.3
20260901165555 86 360 8.0 10.0 0.00 0.00 0.00 15 1015.4
20260901164555 85 360 4.0 10.0 0.00 0.00 0.00 17 1015.2
20260901163555 84 360 6.0 10.0 0.00 0.00 0.00 17 1015.2
20260901163054 84 360 6.0 10.0 0.00 0.00 0.00 19 1015.1
20260901162555 84 360 7.0 8.0 0.00 0.00 0.00 23 1015.3
20260901162055 84 360 4.0 8.0 0.00 0.00 0.00 22 1015.4
20260901161554 83 360 5.0 9.0 0.00 0.00 0.00 21 1015.2
20260901161054 83 360 5.0 10.0 0.00 0.00 0.00 21 1015.2
20260901160555 83 360 3.0 11.0 0.00 0.00 0.00 21 1015.2
20260901160055 83 360 6.0 11.0 0.00 0.00 0.00 21 1015.2
20260901155555 83 360 8.0 11.0 0.00 0.00 0.00 19 1015.3
20260901155054 83 360 7.0 11.0 0.00 0.00 0.00 18 1015.3
20260901154554 83 360 5.0 12.0 0.00 0.00 0.00 16 1015.2
20260901154054 83 360 8.0 12.0 0.00 0.00 0.00 19 1015.2
20260901153554 82 360 8.0 8.0 0.00 0.00 0.00 19 1015.1
20260901153054 82 360 4.0 7.0 0.00 0.00 0.00 22 1015.1
20260901152054 82 360 6.0 9.0 0.00 0.00 0.00 20 1015.1
20260901151555 82 360 3.0 8.0 0.00 0.00 0.00 21 1015.1
20260901151054 81 360 2.0 8.0 0.00 0.00 0.00 21 1015.1
20260901150054 81 360 4.0 7.0 0.00 0.00 0.00 24 1015.0
20260901145554 80 360 6.0 8.0 0.00 0.00 0.00 26 1015.1
20260901145054 80 360 3.0 9.0 0.00 0.00 0.00 26 1014.9
20260901144554 80 66 4.0 9.0 0.00 0.00 0.00 25 1015.0
20260901144055 80 87 5.0 8.0 0.00 0.00 0.00 25 1014.9
20260901143555 79 72 4.0 8.0 0.00 0.00 0.00 25 1014.9
20260901142554 78 66 5.0 8.0 0.00 0.00 0.00 28 1014.5
20260901142054 78 113 4.0 7.0 0.00 0.00 0.00 30 1014.5
20260901141555 77 77 3.0 7.0 0.00 0.00 0.00 33 1014.5
20260901141054 76 84 2.0 5.0 0.00 0.00 0.00 36 1014.4
20260901140555 76 69 2.0 5.0 0.00 0.00 0.00 37 1014.3
20260901140054 75 71 2.0 4.0 0.00 0.00 0.00 38 1014.3
20260901135054 75 70 1.0 4.0 0.00 0.00 0.00 40 1014.4
20260901134555 74 70 1.0 5.0 0.00 0.00 0.00 41 1014.3
20260901133554 74 74 1.0 7.0 0.00 0.00 0.00 38 1014.2
20260901133054 74 92 1.0 5.0 0.00 0.00 0.00 32 1014.3
20260901132555 75 92 2.0 5.0 0.00 0.00 0.00 29 1014.2
20260901132054 75 92 1.0 5.0 0.00 0.00 0.00 28 1014.2
20260901131554 75 92 3.0 3.0 0.00 0.00 0.00 28 1014.1
20260901131054 75 92 2.0 5.0 0.00 0.00 0.00 29 1014.1
20260901130554 75 92 1.0 6.0 0.00 0.00 0.00 29 1014.1
20260901130055 75 91 2.0 6.0 0.00 0.00 0.00 30 1014.1
20260901125554 75 90 2.0 7.0 0.00 0.00 0.00 31 1014.0
20260901124554 75 78 2.0 7.0 0.00 0.00 0.00 29 1014.0
20260901124054 75 91 2.0 6.0 0.00 0.00 0.00 28 1014.1
20260901123554 76 82 3.0 5.0 0.00 0.00 0.00 28 1014.2
20260901123054 76 81 3.0 6.0 0.00 0.00 0.00 29 1014.1
20260901122554 76 76 2.0 8.0 0.00 0.00 0.00 29 1014.1
20260901122054 76 77 3.0 8.0 0.00 0.00 0.00 29 1014.1
20260901121554 76 84 2.0 5.0 0.00 0.00 0.00 29 1014.1
20260901121054 76 77 2.0 8.0 0.00 0.00 0.00 28 1014.1
20260901120554 76 85 3.0 8.0 0.00 0.00 0.00 29 1014.1
20260901120055 76 74 3.0 8.0 0.00 0.00 0.00 29 1014.0
20260901115554 77 67 2.0 8.0 0.00 0.00 0.00 29 1014.1
20260901115054 77 82 7.0 7.0 0.00 0.00 0.00 29 1014.1
20260901114555 77 75 3.0 7.0 0.00 0.00 0.00 29 1014.1
20260901114055 77 74 4.0 8.0 0.00 0.00 0.00 30 1014.1
20260901113554 77 70 7.0 8.0 0.00 0.00 0.00 32 1014.2
20260901113054 77 75 4.0 7.0 0.00 0.00 0.00 33 1014.2
20260901112554 77 82 6.0 7.0 0.00 0.00 0.00 33 1014.2
20260901112054 77 78 3.0 7.0 0.00 0.00 0.00 34 1014.3
20260901111554 77 76 3.0 8.0 0.00 0.00 0.00 35 1014.3
20260901110054 78 79 3.0 8.0 0.00 0.00 0.00 33 1014.3
20260901104555 78 80 6.0 8.0 0.00 0.00 0.00 32 1014.2
20260901103554 78 81 3.0 8.0 0.00 0.00 0.00 31 1014.3
20260901103054 78 78 3.0 7.0 0.00 0.00 0.00 30 1014.2
20260901102054 78 67 5.0 9.0 0.00 0.00 0.00 29 1014.2
20260901101554 78 81 6.0 8.0 0.00 0.00 0.00 28 1014.2
20260901100554 78 66 4.0 7.0 0.00 0.00 0.00 26 1014.1
20260901095554 79 64 4.0 7.0 0.00 0.00 0.00 27 1014.1
20260901095054 79 65 2.0 7.0 0.00 0.00 0.00 28 1014.1
20260901094554 79 62 3.0 8.0 0.00 0.00 0.00 29 1014.1
20260901094054 79 63 7.0 8.0 0.00 0.00 0.00 29 1014.1
20260901093554 80 57 3.0 8.0 0.00 0.00 0.00 30 1014.2
20260901093054 80 76 4.0 8.0 0.00 0.00 0.00 30 1014.2
20260901092054 80 78 8.0 10.0 0.00 0.00 0.00 33 1014.1
20260901091554 80 86 5.0 10.0 0.00 0.00 0.00 33 1014.1
20260901091054 80 100 6.0 9.0 0.00 0.00 0.00 33 1014.0
20260901085554 81 90 5.0 9.0 0.00 0.00 0.00 35 1013.8
20260901085054 81 85 5.0 8.0 0.00 0.00 0.00 35 1014.0
20260901084554 81 78 4.0 10.0 0.00 0.00 0.00 35 1014.0
20260901083054 82 68 8.0 12.0 0.00 0.00 0.00 36 1014.3
20260901082554 82 73 4.0 12.0 0.00 0.00 0.00 36 1014.1
20260901082054 82 98 3.0 9.0 0.00 0.00 0.00 36 1014.1
20260901081554 83 71 3.0 10.0 0.00 0.00 0.00 35 1014.2
20260901081054 83 75 5.0 10.0 0.00 0.00 0.00 34 1014.2
20260901080554 83 74 7.0 10.0 0.00 0.00 0.00 29 1014.1
20260901080054 84 63 9.0 9.0 0.00 0.00 0.00 20 1014.3
20260901075054 84 132 3.0 6.0 0.00 0.00 0.00 15 1013.8
20260901074554 85 132 3.0 6.0 0.00 0.00 0.00 15 1013.9
20260901074054 85 144 3.0 8.0 0.00 0.00 0.00 15 1013.8
20260901073554 85 148 2.0 8.0 0.00 0.00 0.00 15 1013.8
20260901073054 85 128 1.0 7.0 0.00 0.00 0.00 14 1013.7
20260901072054 85 129 5.0 8.0 0.00 0.00 0.00 15 1013.7
20260901071554 85 113 4.0 8.0 0.00 0.00 0.00 15 1013.7
20260901071054 85 119 5.0 8.0 0.00 0.00 0.00 15 1013.5
20260901070054 85 111 2.0 7.0 0.00 0.00 0.00 15 1013.5
20260901065554 86 121 3.0 10.0 0.00 0.00 0.00 15 1013.0
20260901065054 86 130 4.0 10.0 0.00 0.00 0.00 15 1013.0
20260901064054 86 132 2.0 8.0 0.00 0.00 0.00 15 1012.8
20260901063554 86 119 3.0 8.0 0.00 0.00 0.00 16 1012.9
20260901063054 86 155 2.0 4.0 0.00 0.00 0.00 16 1012.9
20260901062554 86 165 2.0 4.0 0.00 0.00 0.00 17 1012.9
20260901062054 87 166 2.0 7.0 0.00 0.00 0.00 19 1012.9
20260901061554 87 166 2.0 9.0 0.00 0.00 0.00 24 1012.8
20260901061054 87 104 5.0 9.0 0.00 0.00 0.00 27 1012.8
20260901055553 87 130 5.0 7.0 0.00 0.00 0.00 30 1012.7
20260901054553 87 119 4.0 9.0 0.00 0.00 0.00 30 1012.7
20260901054054 88 171 6.0 11.0 0.00 0.00 0.00 31 1012.7
20260901053554 88 128 3.0 11.0 0.00 0.00 0.00 30 1012.8
20260901053053 88 165 2.0 11.0 0.00 0.00 0.00 30 1012.8
20260901052553 88 159 1.0 11.0 0.00 0.00 0.00 30 1012.7
20260901052054 88 119 3.0 11.0 0.00 0.00 0.00 30 1012.6
20260901051553 88 150 7.0 11.0 0.00 0.00 0.00 30 1012.6
20260901045555 88 153 5.0 16.0 0.00 0.00 0.00 31 1012.4
20260901045053 89 121 7.0 16.0 0.00 0.00 0.00 31 1012.5
20260901044554 89 360 3.0 16.0 0.00 0.00 0.00 31 1012.5
20260901044054 89 360 4.0 16.0 0.00 0.00 0.00 31 1012.7
20260901042553 89 360 9.0 11.0 0.00 0.00 0.00 33 1012.5
20260901041553 89 360 5.0 14.0 0.00 0.00 0.00 33 1012.3
20260901041054 90 360 2.0 11.0 0.00 0.00 0.00 33 1012.4
20260901040553 90 360 4.0 12.0 0.00 0.00 0.00 32 1012.2
20260901040053 90 360 5.0 12.0 0.00 0.00 0.00 32 1012.2
20260901035554 90 360 4.0 11.0 0.00 0.00 0.00 31 1012.1
20260901035053 90 360 3.0 10.0 0.00 0.00 0.00 27 1012.0
20260901034553 90 360 4.0 6.0 0.00 0.00 0.00 18 1011.9
20260901033554 90 360 0.0 3.0 0.00 0.00 0.00 17 1011.5
20260901033054 90 360 1.0 3.0 0.00 0.00 0.00 17 1011.5
20260901032054 91 360 2.0 3.0 0.00 0.00 0.00 17 1011.2
20260901031554 91 360 1.0 3.0 0.00 0.00 0.00 17 1011.2
20260901031053 91 360 1.0 4.0 0.00 0.00 0.00 16 1011.2
20260901030553 91 360 1.0 6.0 0.00 0.00 0.00 16 1011.1
20260901030053 92 360 3.0 6.0 0.00 0.00 0.00 16 1011.2
20260901025054 92 360 4.0 7.0 0.00 0.00 0.00 16 1010.8
20260901024553 92 360 2.0 7.0 0.00 0.00 0.00 16 1010.8
20260901024054 92 360 0.0 7.0 0.00 0.00 0.00 15 1010.9
20260901023553 92 360 2.0 7.0 0.00 0.00 0.00 15 1010.7
20260901023054 93 360 4.0 8.0 0.00 0.00 0.00 15 1010.8
20260901022554 93 360 2.0 8.0 0.00 0.00 0.00 15 1011.0
20260901022053 93 349 2.0 8.0 0.00 0.00 0.00 15 1010.9
20260901021553 93 360 7.0 10.0 0.00 0.00 0.00 15 1010.8
20260901021053 93 360 4.0 11.0 0.00 0.00 0.00 15 1010.8
20260901020053 94 360 6.0 11.0 0.00 0.00 0.00 15 1010.6
20260901015553 94 202 5.0 10.0 0.00 0.00 0.00 15 1010.0
20260901014553 94 200 9.0 18.0 0.00 0.00 0.00 15 1010.0
20260901014053 95 182 3.0 18.0 0.00 0.00 0.00 15 1010.1
20260901013553 95 205 7.0 15.0 0.00 0.00 0.00 15 1010.1